This demonstration page uses our WeatherBlox Daily Observations layout. Learn more.

Left ArrowRight Arrow

40.92501, -98.34201

Hourly Observations for May 10, 2020

Temp ( °F °C ) Dew Point ( °F °C ) Humidity (%) Winds ( mph kmh ) Pressure ( in mb ) Visibility ( mi km ) Precip ( " mm )
12:53 am 00:53 Cloudy 41 5 26 -3.3 55 55 N 26 43 30.35 1028 10 16 0.00 0.00
1:53 am 01:53 Cloudy 40 4.4 27 -2.8 60 60 NNW 24 39 30.35 1028 10 16 0.00 0.00
2:53 am 02:53 Mostly Cloudy 39 3.9 26 -3.3 60 60 NNW 20 31 30.37 1029 10 16 0.00 0.00
3:53 am 03:53 Clear 36 2.2 26 -3.3 67 67 NNW 9 15 30.39 1029 10 16 0.00 0.00
4:53 am 04:53 Clear 34 1.1 26 -3.3 73 73 NW 7 11 30.39 1029 10 16 0.00 0.00
5:53 am 05:53 Clear 32 0 25 -3.9 75 75 WNW 10 17 30.40 1029 10 16 0.00 0.00
6:53 am 06:53 Sunny 32 0 26 -3.3 79 79 W 12 19 30.42 1030 10 16 0.00 0.00
7:53 am 07:53 Sunny 34 1.1 27 -2.8 76 76 WNW 9 15 30.43 1030 10 16 0.00 0.00
8:53 am 08:53 Sunny 41 5 26 -3.3 55 55 NNW 15 24 30.42 1030 10 16 0.00 0.00
9:53 am 09:53 Sunny 44 6.7 25 -3.9 47 47 NNW 12 19 30.44 1031 10 16 0.00 0.00
10:53 am 10:53 Sunny 47 8.3 25 -3.9 42 42 N 13 20 30.44 1031 10 16 0.00 0.00
11:53 am 11:53 Sunny 50 10 25 -3.9 38 38 N 16 26 30.43 1030 10 16 0.00 0.00
12:53 pm 12:53 Sunny 52 11.1 25 -3.9 35 35 N 14 22 30.41 1030 10 16 0.00 0.00
1:39 pm 13:39 Mostly Sunny 53 11.7 26 -3.3 35 35 N 18 30 30.37 1028 10 16 0.00 0.00
1:53 pm 13:53 Partly Cloudy 55 12.8 25 -3.9 31 31 NNW 17 28 30.39 1029 10 16 0.00 0.00
2:53 pm 14:53 Mostly Cloudy 55 12.8 27 -2.8 34 34 N 16 26 30.39 1029 10 16 0.00 0.00
3:53 pm 15:53 Mostly Cloudy 55 12.8 28 -2.2 35 35 N 16 26 30.39 1029 10 16 0.00 0.00
4:53 pm 16:53 Partly Cloudy 52 11.1 28 -2.2 40 40 N 16 26 30.39 1029 10 16 0.00 0.00
5:53 pm 17:53 Partly Cloudy 54 12.2 27 -2.8 35 35 N 20 31 30.38 1029 10 16 0.00 0.00
6:53 pm 18:53 Sunny 52 11.1 26 -3.3 37 37 N 16 26 30.38 1029 10 16 0.00 0.00
7:53 pm 19:53 Mostly Sunny 50 10 25 -3.9 38 38 N 10 17 30.38 1029 10 16 0.00 0.00
8:53 pm 20:53 Clear 43 6.1 26 -3.3 51 51 N 8 13 30.39 1029 10 16 0.00 0.00
9:53 pm 21:53 Clear 41 5 26 -3.3 55 55 N 8 13 30.41 1030 10 16 0.00 0.00
10:53 pm 22:53 Clear 41 5 26 -3.3 55 55 N 9 15 30.42 1030 10 16 0.00 0.00
11:53 pm 23:53 Clear 40 4.4 27 -2.8 60 60 NNW 7 11 30.42 1030 10 16 0.00 0.00

Powered by AerisWeather